GW1334 Weather Reports


time (UTC)temp
F
wind
direction
speed
knots
gust
knots
rain 1hr
in
rain 24hr
in
rain mn
in
humidity
%
barometer
mb
20260906215151 90 24 4.3 7.0 0.00 0.00 0.00 34 1017.4
20260906214649 89 62 7.0 8.7 0.00 0.00 0.00 34 1017.4
20260906214144 90 96 2.6 4.3 0.00 0.00 0.00 34 1017.5
20260906213644 90 101 2.6 7.0 0.00 0.00 0.00 34 1017.7
20260906213138 90 111 3.5 4.3 0.00 0.00 0.00 33 1017.9
20260906212636 91 65 1.7 5.2 0.00 0.00 0.00 33 1017.7
20260906212132 89 40 3.5 5.2 0.00 0.00 0.00 34 1017.8
20260906211631 91 127 3.5 6.1 0.00 0.00 0.00 33 1018.0
20260906211126 91 229 5.2 7.0 0.00 0.00 0.00 33 1017.9
20260906210622 91 43 0.9 5.2 0.00 0.00 0.00 34 1018.2
20260906210117 92 340 3.5 5.2 0.00 0.00 0.00 32 1018.3
20260906205612 90 280 0.0 4.3 0.00 0.00 0.00 34 1018.4
20260906205109 90 349 6.1 13.0 0.00 0.00 0.00 34 1018.3
20260906204607 88 277 2.6 6.1 0.00 0.00 0.00 36 1018.5
20260906204103 88 86 4.3 5.2 0.00 0.00 0.00 36 1018.6
20260906203602 89 89 2.6 4.3 0.00 0.00 0.00 36 1018.6
20260906203057 89 137 5.2 9.6 0.00 0.00 0.00 35 1018.7
20260906202554 88 69 6.1 7.8 0.00 0.00 0.00 36 1018.6
20260906202053 88 57 0.9 1.7 0.00 0.00 0.00 36 1018.9
20260906201548 88 87 4.3 7.0 0.00 0.00 0.00 37 1019.0
20260906201048 86 225 2.6 7.8 0.00 0.00 0.00 38 1019.0
20260906200544 87 64 3.5 7.8 0.00 0.00 0.00 37 1019.0
20260906200039 87 165 3.5 5.2 0.00 0.00 0.00 35 1018.9
20260906195535 89 70 1.7 5.2 0.00 0.00 0.00 35 1019.3
20260906195031 88 68 2.6 7.0 0.00 0.00 0.00 38 1019.1
20260906194527 86 74 2.6 5.2 0.00 0.00 0.00 39 1019.1
20260906194022 85 37 2.6 5.2 0.00 0.00 0.00 41 1019.1
20260906193522 86 60 5.2 7.0 0.00 0.00 0.00 41 1019.2
20260906193017 86 22 5.2 6.1 0.00 0.00 0.00 42 1019.3
20260906192513 85 43 1.7 7.0 0.00 0.00 0.00 43 1019.6
20260906192012 85 41 3.5 8.7 0.00 0.00 0.00 42 1019.4
20260906191507 85 84 4.3 6.1 0.00 0.00 0.00 41 1019.7
20260906191006 85 59 4.3 6.1 0.00 0.00 0.00 42 1019.8
20260906190505 85 80 3.5 7.0 0.00 0.00 0.00 42 1020.0
20260906190000 84 25 2.6 5.2 0.00 0.00 0.00 46 1019.8
20260906185459 84 29 1.7 5.2 0.00 0.00 0.00 45 1020.0
20260906184958 83 38 2.6 6.1 0.00 0.00 0.00 45 1020.3
20260906184454 83 7 2.6 2.6 0.00 0.00 0.00 47 1020.1
20260906183948 82 62 6.1 7.0 0.00 0.00 0.00 48 1020.4
20260906183439 81 115 2.6 7.0 0.00 0.00 0.00 48 1020.5
20260906182934 81 84 2.6 4.3 0.00 0.00 0.00 50 1020.4
20260906182430 81 68 2.6 6.1 0.00 0.00 0.00 50 1020.7
20260906181926 80 69 4.3 6.1 0.00 0.00 0.00 52 1020.7
20260906181421 81 76 5.2 7.8 0.00 0.00 0.00 52 1020.7
20260906180917 82 43 4.3 5.2 0.00 0.00 0.00 51 1021.0
20260906180412 80 343 1.7 4.3 0.00 0.00 0.00 54 1021.4
20260906175909 80 22 2.6 5.2 0.00 0.00 0.00 54 1021.4
20260906175405 79 45 1.7 5.2 0.00 0.00 0.00 56 1021.3
20260906174903 80 53 3.5 6.1 0.00 0.00 0.00 55 1021.4
20260906174403 78 67 1.7 4.3 0.00 0.00 0.00 58 1021.5
20260906173857 78 38 2.6 5.2 0.00 0.00 0.00 59 1021.6
20260906173353 78 44 0.9 1.7 0.00 0.00 0.00 56 1021.5
20260906172852 78 358 0.9 4.3 0.00 0.00 0.00 59 1021.9
20260906172348 77 76 2.6 2.6 0.00 0.00 0.00 59 1021.8
20260906171843 78 69 2.6 5.2 0.00 0.00 0.00 60 1021.9
20260906171338 78 21 3.5 5.2 0.00 0.00 0.00 61 1022.1
20260906170834 77 69 0.0 2.6 0.00 0.00 0.00 61 1022.1
20260906170330 75 54 1.7 1.7 0.00 0.00 0.00 64 1022.5
20260906165826 76 78 5.2 6.1 0.00 0.00 0.00 63 1022.5
20260906165324 74 54 0.0 4.3 0.00 0.00 0.00 65 1022.3
20260906164819 75 20 3.5 4.3 0.00 0.00 0.00 65 1022.3
20260906164314 75 307 4.3 5.2 0.00 0.00 0.00 66 1022.5
20260906163810 74 350 2.6 2.6 0.00 0.00 0.00 66 1022.5
20260906163306 74 49 0.0 4.3 0.00 0.00 0.00 67 1022.7
20260906162803 73 305 1.7 2.6 0.00 0.00 0.00 67 1022.6
20260906162305 73 68 2.6 2.6 0.00 0.00 0.00 69 1022.3
20260906161757 72 25 1.7 4.3 0.00 0.00 0.00 70 1022.6
20260906161256 71 196 1.7 1.7 0.00 0.00 0.00 71 1022.2
20260906160755 71 17 3.5 5.2 0.00 0.00 0.00 71 1022.5
20260906160250 71 28 2.6 4.3 0.00 0.00 0.00 72 1022.6
20260906155747 71 0 5.2 7.0 0.00 0.00 0.00 72 1022.3
20260906155242 70 13 1.7 5.2 0.00 0.00 0.00 74 1022.5
20260906154738 70 21 3.5 6.1 0.00 0.00 0.00 74 1022.6
20260906154232 69 348 3.5 4.3 0.00 0.00 0.00 76 1022.8
20260906153731 69 15 4.3 6.1 0.00 0.00 0.00 75 1022.8
20260906153225 69 353 3.5 7.0 0.00 0.00 0.00 76 1022.6
20260906152720 68 346 5.2 6.1 0.00 0.00 0.00 77 1022.7
20260906152215 68 354 6.1 7.0 0.00 0.00 0.00 78 1022.7
20260906151709 68 351 7.0 7.8 0.00 0.00 0.00 76 1022.6
20260906151205 68 9 2.6 7.0 0.00 0.00 0.00 78 1022.8
20260906150701 68 314 2.6 5.2 0.00 0.00 0.00 78 1022.8
20260906150156 67 8 4.3 5.2 0.00 0.00 0.00 79 1022.9
20260906145654 67 311 4.3 5.2 0.00 0.00 0.00 80 1022.8
20260906145149 67 349 4.3 7.0 0.00 0.00 0.00 79 1023.0
20260906144649 67 351 5.2 7.8 0.00 0.00 0.00 79 1022.7
20260906144144 67 4 5.2 7.0 0.00 0.00 0.00 79 1022.7
20260906143643 67 335 2.6 7.0 0.00 0.00 0.00 79 1022.9
20260906143141 66 2 2.6 5.2 0.00 0.00 0.00 80 1023.0
20260906142640 66 353 5.2 7.0 0.00 0.00 0.00 81 1022.8
20260906142135 66 355 4.3 7.0 0.00 0.00 0.00 81 1022.8
20260906141634 66 356 5.2 5.2 0.00 0.00 0.00 82 1022.8
20260906141129 65 2 4.3 6.1 0.00 0.00 0.00 82 1022.8
20260906140628 65 0 4.3 6.1 0.00 0.00 0.00 83 1022.9
20260906140124 65 337 5.2 6.1 0.00 0.00 0.00 83 1022.7
20260906135621 64 356 5.2 6.1 0.00 0.00 0.00 83 1022.7
20260906135116 64 351 4.3 6.1 0.00 0.00 0.00 84 1022.7
20260906134612 64 0 6.1 7.0 0.00 0.00 0.00 84 1022.6
20260906134107 64 342 4.3 5.2 0.00 0.00 0.00 83 1022.5
20260906133603 64 339 4.3 5.2 0.00 0.00 0.00 82 1022.5
20260906133057 63 344 3.5 4.3 0.00 0.00 0.00 81 1022.5
20260906132552 62 338 3.5 5.2 0.00 0.00 0.00 81 1022.5
20260906132048 62 326 5.2 6.1 0.00 0.00 0.00 80 1022.3
20260906131543 63 310 6.1 6.1 0.00 0.00 0.00 80 1022.6
20260906131039 62 320 5.2 6.1 0.00 0.00 0.00 80 1022.1
20260906130538 62 322 3.5 5.2 0.00 0.00 0.00 81 1022.2
20260906130033 62 315 4.3 5.2 0.00 0.00 0.00 83 1022.1
20260906125531 59 293 2.6 2.6 0.00 0.00 0.00 84 1022.1
20260906125031 59 326 0.9 1.7 0.00 0.00 0.00 84 1021.8
20260906124526 59 262 1.7 1.7 0.00 0.00 0.00 84 1022.1
20260906124021 60 262 2.6 2.6 0.00 0.00 0.00 84 1022.2
20260906123520 60 206 0.0 0.0 0.00 0.00 0.00 84 1022.0
20260906123015 59 206 0.9 1.7 0.00 0.00 0.00 84 1022.1
20260906122509 61 239 1.7 1.7 0.00 0.00 0.00 84 1022.0
20260906122006 60 292 2.6 2.6 0.00 0.00 0.00 84 1021.9
20260906121502 61 316 2.6 4.3 0.00 0.00 0.00 85 1021.9
20260906120958 61 325 1.7 1.7 0.00 0.00 0.00 85 1022.1
20260906120453 61 286 1.7 1.7 0.00 0.00 0.00 85 1022.1
20260906115949 61 308 0.9 1.7 0.00 0.00 0.00 85 1022.1
20260906115444 61 315 1.7 1.7 0.00 0.00 0.00 85 1022.0
20260906114944 61 340 1.7 1.7 0.00 0.00 0.00 85 1021.9
20260906114438 61 289 1.7 2.6 0.00 0.00 0.00 86 1022.2
20260906113935 60 284 2.6 2.6 0.00 0.00 0.00 86 1022.0
20260906113433 61 299 1.7 1.7 0.00 0.00 0.00 86 1021.6
20260906112929 60 321 2.6 2.6 0.00 0.00 0.00 85 1022.0
20260906112424 61 296 2.6 2.6 0.00 0.00 0.00 86 1021.8
20260906111920 61 324 3.5 4.3 0.00 0.00 0.00 86 1021.6
20260906111419 61 323 2.6 2.6 0.00 0.00 0.00 85 1021.6
20260906110914 60 312 2.6 2.6 0.00 0.00 0.00 85 1022.1
20260906110409 61 307 2.6 2.6 0.00 0.00 0.00 86 1021.8
20260906105909 61 301 1.7 1.7 0.00 0.00 0.00 86 1021.4
20260906105404 62 305 1.7 2.6 0.00 0.00 0.00 85 1021.5
20260906104900 62 343 1.7 1.7 0.00 0.00 0.00 86 1021.5
20260906104358 62 11 0.9 1.7 0.00 0.00 0.00 86 1021.6
20260906103858 63 10 1.7 1.7 0.00 0.00 0.00 85 1021.4
20260906103356 62 5 0.9 1.7 0.00 0.00 0.00 85 1021.6
20260906102852 62 70 0.0 0.0 0.00 0.00 0.00 84 1021.6
20260906102351 62 66 0.0 0.9 0.00 0.00 0.00 84 1021.6
20260906101846 63 91 0.9 0.9 0.00 0.00 0.00 84 1021.8
20260906101341 62 70 0.0 0.9 0.00 0.00 0.00 84 1021.5
20260906100837 63 28 1.7 1.7 0.00 0.00 0.00 84 1021.4
20260906100336 63 20 0.9 1.7 0.00 0.00 0.00 84 1021.8
20260906095831 63 19 2.6 4.3 0.00 0.00 0.00 83 1021.8
20260906095327 63 33 2.6 4.3 0.00 0.00 0.00 83 1021.3
20260906094826 63 47 0.9 1.7 0.00 0.00 0.00 82 1021.9
20260906094321 63 64 1.7 2.6 0.00 0.00 0.00 82 1021.6
20260906093818 64 62 0.9 1.7 0.00 0.00 0.00 81 1021.5
20260906093313 64 114 0.9 1.7 0.00 0.00 0.00 81 1021.6
20260906092808 64 113 0.9 1.7 0.00 0.00 0.00 80 1021.6
20260906092305 64 65 1.7 1.7 0.00 0.00 0.00 79 1021.6
20260906091758 64 45 0.0 1.7 0.00 0.00 0.00 78 1021.5
20260906091254 64 49 1.7 1.7 0.00 0.00 0.00 77 1021.4
20260906090750 64 49 2.6 2.6 0.00 0.00 0.00 76 1021.5
20260906090248 64 29 2.6 2.6 0.00 0.00 0.00 76 1021.2
20260906085748 65 17 3.5 4.3 0.00 0.00 0.00 75 1021.0
20260906085242 65 24 4.3 5.2 0.00 0.00 0.00 74 1021.0
20260906084737 65 27 4.3 5.2 0.00 0.00 0.00 74 1021.0
20260906084236 65 20 5.2 6.1 0.00 0.00 0.00 72 1020.8
20260906083731 65 12 6.1 7.8 0.00 0.00 0.00 71 1020.7
20260906083227 66 1 6.1 7.0 0.00 0.00 0.00 70 1020.5
20260906082722 66 21 6.1 7.0 0.00 0.00 0.00 69 1020.5
20260906082217 66 16 7.0 7.8 0.00 0.00 0.00 67 1020.7
20260906081713 66 2 6.1 7.0 0.00 0.00 0.00 66 1020.6
20260906081208 66 21 5.2 7.0 0.00 0.00 0.00 64 1020.7
20260906080704 66 3 4.3 7.0 0.00 0.00 0.00 63 1021.0
20260906080200 66 359 4.3 6.1 0.00 0.00 0.00 63 1021.0
20260906075700 67 20 5.2 7.0 0.00 0.00 0.00 61 1021.1
20260906075154 67 10 5.2 6.1 0.00 0.00 0.00 60 1021.2
20260906074649 67 359 7.0 9.6 0.00 0.00 0.00 59 1021.2
20260906074143 67 354 5.2 6.1 0.00 0.00 0.00 56 1021.1
20260906073638 68 14 4.3 6.1 0.00 0.00 0.00 54 1021.4
20260906073134 68 1 3.5 6.1 0.00 0.00 0.00 53 1021.1
20260906072629 67 341 5.2 7.0 0.00 0.00 0.00 54 1020.8
20260906072124 69 5 6.1 7.0 0.00 0.00 0.00 50 1020.7
20260906071620 68 359 6.1 7.8 0.00 0.00 0.00 49 1020.7
20260906071115 69 359 5.2 6.1 0.00 0.00 0.00 48 1020.8
20260906070612 69 359 2.6 4.3 0.00 0.00 0.00 48 1021.0
20260906070107 70 356 2.6 4.3 0.00 0.00 0.00 47 1020.8
20260906065607 70 328 4.3 5.2 0.00 0.00 0.00 47 1020.8
20260906065102 70 338 1.7 1.7 0.00 0.00 0.00 50 1020.6
20260906064558 69 302 1.7 1.7 0.00 0.00 0.00 50 1020.7
20260906064052 69 280 2.6 2.6 0.00 0.00 0.00 51 1020.7
20260906063548 71 303 4.3 5.2 0.00 0.00 0.00 49 1020.7
20260906063043 70 351 3.5 4.3 0.00 0.00 0.00 50 1020.5
20260906062538 69 3 2.6 2.6 0.00 0.00 0.00 53 1021.0
20260906062033 70 21 2.6 2.6 0.00 0.00 0.00 52 1020.6
20260906061529 73 29 2.6 4.3 0.00 0.00 0.00 50 1020.4
20260906061028 73 4 4.3 5.2 0.00 0.00 0.00 47 1020.5
20260906060525 74 350 4.3 5.2 0.00 0.00 0.00 45 1020.5
20260906060022 74 345 4.3 4.3 0.00 0.00 0.00 46 1021.0
20260906055518 75 350 2.6 4.3 0.00 0.00 0.00 44 1021.1
20260906055012 74 322 2.6 4.3 0.00 0.00 0.00 41 1020.8
20260906054507 73 308 3.5 4.3 0.00 0.00 0.00 42 1021.0
20260906054003 73 273 2.6 2.6 0.00 0.00 0.00 42 1021.1
20260906053459 73 256 2.6 4.3 0.00 0.00 0.00 42 1021.4
20260906052954 73 270 5.2 6.1 0.00 0.00 0.00 41 1021.3
20260906052450 72 276 3.5 5.2 0.00 0.00 0.00 43 1021.4
20260906051947 72 255 4.3 6.1 0.00 0.00 0.00 44 1021.5
20260906051442 71 250 7.8 8.7 0.00 0.00 0.00 46 1021.3
20260906050937 70 246 3.5 4.3 0.00 0.00 0.00 46 1021.4
20260906050437 72 219 1.7 1.7 0.00 0.00 0.00 44 1021.1
20260906045936 73 299 0.9 1.7 0.00 0.00 0.00 46 1020.7
20260906045435 73 352 1.7 2.6 0.00 0.00 0.00 46 1020.7
20260906044931 73 6 2.6 2.6 0.00 0.00 0.00 47 1020.5
20260906044426 73 43 1.7 1.7 0.00 0.00 0.00 46 1020.5
20260906043921 73 61 1.7 1.7 0.00 0.00 0.00 45 1020.6
20260906043417 73 37 1.7 1.7 0.00 0.00 0.00 43 1020.6
20260906042912 73 22 0.9 0.9 0.00 0.00 0.00 43 1020.6
20260906042411 73 22 1.7 2.6 0.00 0.00 0.00 42 1020.3
20260906041906 73 21 2.6 2.6 0.00 0.00 0.00 42 1020.0
20260906041403 72 0 2.6 4.3 0.00 0.00 0.00 43 1020.1
20260906040857 72 18 2.6 2.6 0.00 0.00 0.00 44 1020.3
20260906040352 72 16 3.5 4.3 0.00 0.00 0.00 44 1020.1
20260906035848 71 6 2.6 2.6 0.00 0.00 0.00 45 1020.4
20260906035343 72 33 2.6 2.6 0.00 0.00 0.00 44 1019.9
20260906034838 72 13 2.6 4.3 0.00 0.00 0.00 43 1020.0
20260906034333 72 10 2.6 2.6 0.00 0.00 0.00 44 1020.0
20260906033829 73 7 2.6 2.6 0.00 0.00 0.00 43 1020.0
20260906033328 73 14 2.6 4.3 0.00 0.00 0.00 42 1019.8
20260906032825 73 14 2.6 2.6 0.00 0.00 0.00 42 1019.7
20260906032320 72 9 2.6 2.6 0.00 0.00 0.00 42 1019.6
20260906031815 72 23 1.7 2.6 0.00 0.00 0.00 43 1019.7
20260906031311 73 16 2.6 2.6 0.00 0.00 0.00 42 1019.7
20260906030810 76 20 4.3 5.2 0.00 0.00 0.00 37 1019.4
20260906030306 75 9 5.2 6.1 0.00 0.00 0.00 37 1019.3
20260906025805 75 328 4.3 5.2 0.00 0.00 0.00 38 1019.3
20260906025259 76 346 3.5 5.2 0.00 0.00 0.00 37 1019.3
20260906024758 77 3 4.3 6.1 0.00 0.00 0.00 36 1019.2
20260906024258 77 341 4.3 6.1 0.00 0.00 0.00 36 1019.3
20260906023753 77 341 4.3 6.1 0.00 0.00 0.00 36 1019.4
20260906023248 77 13 4.3 6.1 0.00 0.00 0.00 35 1019.4
20260906022744 76 327 4.3 6.1 0.00 0.00 0.00 36 1019.2
20260906022239 76 322 3.5 5.2 0.00 0.00 0.00 37 1019.3
20260906021736 79 353 4.3 7.0 0.00 0.00 0.00 33 1019.0
20260906021234 79 345 4.3 6.1 0.00 0.00 0.00 33 1018.9
20260906020729 79 333 3.5 4.3 0.00 0.00 0.00 32 1018.9
20260906020223 80 331 4.3 6.1 0.00 0.00 0.00 32 1018.7
20260906015718 80 322 4.3 6.1 0.00 0.00 0.00 32 1018.7
20260906015216 81 309 4.3 7.0 0.00 0.00 0.00 31 1018.5
20260906014711 82 343 7.8 9.6 0.00 0.00 0.00 30 1018.4
20260906014207 81 322 7.0 7.8 0.00 0.00 0.00 30 1018.5
20260906013702 82 340 6.1 7.8 0.00 0.00 0.00 30 1018.4
20260906013157 82 337 7.0 8.7 0.00 0.00 0.00 29 1018.5
20260906012657 83 352 7.8 11.3 0.00 0.00 0.00 29 1018.4
20260906012152 83 352 6.1 7.8 0.00 0.00 0.00 28 1018.3
20260906011648 84 348 9.6 9.6 0.00 0.00 0.00 28 1018.5
20260906011142 85 342 9.6 11.3 0.00 0.00 0.00 27 1018.0
20260906010637 85 329 5.2 7.8 0.00 0.00 0.00 27 1018.3
20260906010134 86 332 5.2 7.0 0.00 0.00 0.00 27 1018.4
20260906005632 86 325 6.1 6.1 0.00 0.00 0.00 26 1018.3
20260906005127 86 310 4.3 7.0 0.00 0.00 0.00 25 1018.2
20260906004626 87 311 4.3 7.0 0.00 0.00 0.00 25 1018.2
20260906004121 87 332 3.5 5.2 0.00 0.00 0.00 25 1018.3
20260906003616 87 322 3.5 4.3 0.00 0.00 0.00 25 1018.3
20260906003112 88 307 5.2 6.1 0.00 0.00 0.00 24 1018.4
20260906002607 88 327 4.3 6.1 0.00 0.00 0.00 24 1018.3
20260906002101 88 348 4.3 6.1 0.00 0.00 0.00 24 1018.2
20260906001556 88 339 3.5 5.2 0.00 0.00 0.00 25 1017.9
20260906001051 89 341 6.1 6.1 0.00 0.00 0.00 24 1018.2
20260906000547 90 0 6.1 7.0 0.00 0.00 0.00 24 1017.8
20260906000042 91 27 2.6 4.3 0.00 0.00 0.00 22 1017.9
20260905235541 92 12 2.6 4.3 0.00 0.00 0.00 21 1017.9
20260905235036 91 0 2.6 2.6 0.00 0.00 0.00 21 1017.8
20260905234532 92 67 3.5 4.3 0.00 0.00 0.00 21 1017.9
20260905234027 93 25 4.3 5.2 0.00 0.00 0.00 21 1018.0
20260905233522 93 21 4.3 6.1 0.00 0.00 0.00 21 1017.9
20260905233021 94 22 4.3 6.1 0.00 0.00 0.00 21 1017.7
20260905232517 95 254 0.0 1.7 0.00 0.00 0.00 19 1017.8
20260905232013 94 355 1.7 4.3 0.00 0.00 0.00 20 1018.0
20260905231508 93 2 2.6 5.2 0.00 0.00 0.00 20 1017.9
20260905231004 94 331 4.3 5.2 0.00 0.00 0.00 19 1017.9
20260905230503 94 339 2.6 2.6 0.00 0.00 0.00 20 1017.9
20260905230001 94 110 3.5 5.2 0.00 0.00 0.00 19 1017.7
20260905225456 93 113 3.5 5.2 0.00 0.00 0.00 20 1017.7
20260905224951 94 45 10.4 13.9 0.00 0.00 0.00 20 1017.5
20260905224446 93 356 4.3 6.1 0.00 0.00 0.00 21 1017.7
20260905223945 94 305 2.6 5.2 0.00 0.00 0.00 20 1017.8
20260905223443 94 13 6.1 7.0 0.00 0.00 0.00 19 1017.7
20260905222943 92 41 1.7 4.3 0.00 0.00 0.00 20 1017.7
20260905222438 93 21 2.6 2.6 0.00 0.00 0.00 20 1017.8
20260905221934 93 324 5.2 7.0 0.00 0.00 0.00 20 1018.0
20260905221430 94 355 3.5 6.1 0.00 0.00 0.00 20 1017.9
20260905220926 94 11 3.5 5.2 0.00 0.00 0.00 20 1017.9
20260905220422 93 53 2.6 5.2 0.00 0.00 0.00 20 1018.0
20260905215921 93 45 4.3 6.1 0.00 0.00 0.00 20 1017.9
20260905215416 92 44 6.1 7.8 0.00 0.00 0.00 20 1018.0